Location: Brown Observing Site
(43.4354°N, 116.3366°W)
Time: 02:16:58
(UTC-06:00)

Envisat - Pass Details

Date: 03 October 2020
Orbit: 764 x 766 km, 98.1° (Epoch: 23 October)

Event Time Altitude Azimuth Distance (km) Brightness Sun altitude
Rises 20:28:44 0° 219° (SW) 3,219 6.7 -13.0°
Reaches altitude 10° 20:32:40 10° 250° (WSW) 2,300 6.5 -13.7°
Maximum altitude 20:34:33 12° 272° (W) 2,170 6.7 -14.0°
Drops below altitude 10° 20:36:25 10° 294° (WNW) 2,306 6.7 -14.4°
Sets 20:40:24 0° 326° (NW) 3,239 6.9 -15.1°
